Wetbulb
76.12 76.53 75.63 75.03 73.88 74.26 74.55 73.93 71.22 67.72 67.96 71.62 72.95 77.62 78.39 78.23 77.14 78.35 78.91 70.70 71.13 70.15 69.51 69.31 69.96 70.30 70.17 69.66 68.69 68.13 67.70 67.43 67.58 68.08 68.68 69.38 69.16 69.45
75.24 76.54 76.60 75.55 75.26 74.92 74.58 74.77 73.92 72.99 69.94 72.40 73.62 76.50 78.44 76.96 76.53 78.18 76.25 72.22 70.09 69.20 68.53 68.20 68.28 68.84 68.58 68.19 67.67 67.18 66.72 66.54 66.85 66.98 67.40 68.25 68.97 69.20
76.57 75.53 75.96 77.36 75.11 74.44 74.85 74.63 74.09 74.26 71.62 72.89 74.39 76.60 77.85 77.45 77.23 78.19 76.08 76.62 72.73 68.44 67.88 67.44 66.81 67.03 67.07 66.89 66.74 66.20 65.82 65.86 65.81 65.99 66.44 66.45 66.97 67.21
76.00 76.92 75.50 75.33 76.64 76.48 74.87 75.79 75.12 75.01 73.01 74.09 75.78 74.45 76.54 77.39 78.04 76.84 75.77 75.31 74.46 68.17 66.88 65.85 65.36 65.03 65.18 64.89 64.27 63.72 63.57 63.31 63.77 64.34 64.60 64.89 65.04 65.19
75.21 75.55 75.70 75.95 76.80 74.99 75.44 74.99 74.96 74.99 74.74 73.20 72.70 74.48 77.48 76.15 75.21 73.86 74.03 73.70 71.20 66.94 65.05 64.43 63.77 63.41 62.94 62.05 61.37 60.17 59.03 59.26 59.98 60.60 61.64 62.55 62.69 62.46
75.89 76.13 76.13 75.93 76.34 76.25 76.80 75.85 75.34 74.48 75.17 73.26 72.61 72.25 75.14 76.64 77.15 71.31 68.79 69.97 68.60 68.95 68.11 66.11 63.30 62.19 61.24 60.08 59.99 58.79 57.10 56.58 56.77 57.34 57.80 58.62 59.50 59.92
74.80 75.61 76.11 75.25 72.18 72.80 77.08 77.29 77.65 75.18 72.91 71.70 71.36 71.49 72.18 74.43 73.38 71.98 70.55 68.57 68.54 70.08 68.07 65.16 63.57 62.93 61.21 59.27 60.04 58.80 57.51 56.56 55.68 55.27 55.33 55.64 56.36 57.13
73.67 74.39 75.13 72.87 72.35 69.09 68.64 68.73 72.03 76.57 75.09 72.04 71.09 71.36 75.25 74.04 77.14 73.85 69.55 65.81 63.07 67.24 66.49 64.73 64.89 65.63 63.37 63.61 60.54 57.53 56.49 55.49 54.74 54.48 54.06 54.17 54.47 54.91
73.30 73.50 73.82 73.31 72.00 74.19 70.05 67.66 68.06 66.90 68.02 75.58 74.89 74.26 75.49 76.67 77.52 74.54 71.11 69.22 68.16 67.65 66.58 62.31 65.11 64.25 63.28 58.32 57.52 56.43 55.76 54.93 54.49 53.83 53.50 53.20 53.03 52.75
69.22 70.57 70.78 71.85 73.99 73.43 73.75 73.75 74.56 75.30 74.66 73.50 74.33 75.36 76.29 77.04 78.00 77.99 74.53 73.09 71.56 67.77 66.44 60.95 62.33 61.14 60.67 58.05 56.86 55.84 55.23 54.71 54.12 53.45 52.70 51.77 51.03 50.89
65.76 66.48 67.23 69.33 67.55 65.45 71.43 72.70 73.86 75.94 71.47 66.23 67.66 64.91 63.96 63.78 69.13 77.93 75.12 67.82 63.92 63.43 65.34 62.72 59.76 57.64 58.61 55.93 56.13 55.15 54.31 53.24 53.01 52.90 52.50 51.52 50.79 50.60
64.59 64.90 61.14 62.36 59.70 58.53 64.57 71.46 71.46 73.48 75.74 75.71 72.60 71.14 68.23 71.62 64.67 74.92 73.14 67.57 64.51 62.29 64.64 60.57 56.51 55.95 53.03 55.39 54.34 54.51 53.18 52.31 51.94 52.04 52.33 51.54 50.50 54.69
60.78 61.89 63.33 58.41 55.78 55.33 56.02 65.05 70.77 71.98 72.87 75.11 73.05 72.39 70.07 70.21 70.66 68.77 66.80 67.84 64.51 63.49 64.59 59.98 57.37 56.11 54.60 52.17 53.67 54.92 55.27 53.56 54.08 52.51 50.66 50.39 49.93 50.48
57.41 59.47 59.77 55.67 53.77 53.42 56.03 58.27 57.44 61.22 72.10 73.02 70.57 68.11 67.66 67.35 67.14 68.09 67.44 63.76 62.02 63.68 64.75 64.23 58.42 55.51 52.74 51.66 51.57 54.56 55.91 57.07 55.89 56.09 56.60 53.77 50.46 50.88
56.10 55.71 54.11 52.61 51.92 53.87 55.48 56.03 56.79 63.64 69.72 69.89 66.54 66.27 66.77 63.75 61.44 61.17 59.73 58.47 57.73 59.24 61.79 62.00 59.04 56.15 54.65 53.16 52.74 53.48 53.78 55.81 57.75 58.59 59.44 59.12 59.20 59.26
55.65 55.63 55.90 55.14 54.74 56.34 57.80 60.18 62.95 63.89 66.89 66.96 64.37 60.53 59.73 59.54 59.37 60.05 58.28 58.64 56.13 54.75 59.86 61.79 58.64 57.68 55.69 55.89 55.15 53.68 55.97 54.41 57.45 59.24 59.26 58.69 58.72 59.55
52.01 56.94 57.55 57.78 56.51 56.33 58.18 60.89 65.11 65.45 62.60 60.60 59.38 58.54 58.70 58.58 57.92 58.79 58.15 57.59 54.29 53.22 53.67 55.67 57.35 58.68 58.73 56.37 54.20 54.65 56.22 57.32 57.15 57.94 57.86 56.48 56.60 56.21
55.99 58.22 59.50 60.77 59.40 60.14 60.80 62.40 60.87 60.02 59.38 58.49 57.89 57.61 56.37 55.65 55.27 55.91 55.71 54.86 52.51 52.66 53.02 53.96 54.45 53.74 53.95 54.86 57.57 56.93 56.64 54.75 57.22 57.64 58.11 54.81 54.51 55.60
56.41 56.43 56.21 56.47 57.21 59.88 59.50 59.74 57.60 58.16 59.16 57.77 56.59 56.59 55.59 54.86 54.90 53.95 53.53 53.57 52.47 52.87 52.99 53.75 53.89 53.51 51.00 50.38 54.65 52.66 57.12 56.99 56.81 56.13 56.52 55.46 54.87 55.58
55.95 55.17 54.95 56.37 56.09 56.25 56.65 56.45 56.45 57.31 56.07 55.73 55.31 55.27 54.59 54.41 53.06 52.94 52.78 52.60 51.22 51.84 52.02 53.69 54.55 54.56 54.74 54.08 54.80 57.21 49.32 57.92 56.75 55.78 55.33 56.20 55.49 51.85
56.30 54.90 55.11 55.87 55.83 56.07 56.25 56.47 56.69 56.01 55.71 55.39 54.88 55.06 55.06 55.04 54.22 54.38 52.96 51.07 51.25 52.59 52.86 55.54 58.62 58.16 60.22 59.42 55.73 55.18 56.48 50.21 55.12 57.65 57.13 54.78 54.52 54.37
59.14 58.23 57.43 56.19 55.73 56.69 56.23 57.17 56.03 55.69 55.48 55.67 55.77 56.20 56.82 56.06 55.05 54.79 54.98 55.80 56.50 57.33 57.99 58.41 59.79 59.18 58.30 57.01 55.18 55.92 55.44 55.73 51.64 52.14 52.52 51.42 52.87 50.32
61.56 59.48 59.58 61.05 61.28 60.69 59.76 56.51 56.36 56.79 57.00 57.13 56.64 57.12 58.23 57.86 59.09 59.47 58.81 58.35 58.32 58.29 58.04 57.18 57.99 57.96 56.10 55.81 54.79 54.83 55.48 55.00 54.41 53.10 53.48 51.54 51.13 51.26
MSLP
1017.40 1017.34 1017.33 1016.59 1016.37 1016.24 1016.12 1016.20 1015.78 1015.17 1014.53 1014.23 1014.65 1015.18 1015.32 1015.54 1016.20 1016.08 1016.64 1018.29 1018.43 1018.60 1018.76 1019.00 1019.24 1019.36 1019.58 1019.73 1019.82 1019.97 1020.06 1020.08 1020.08 1020.07 1020.01 1019.95 1019.88 1019.79
1016.59 1016.40 1016.90 1016.35 1016.02 1016.00 1016.08 1016.18 1016.07 1015.92 1015.13 1014.38 1014.35 1014.62 1015.33 1015.36 1016.01 1016.19 1016.93 1017.76 1018.35 1018.57 1018.83 1019.00 1019.26 1019.51 1019.70 1019.85 1019.95 1020.08 1020.22 1020.28 1020.33 1020.36 1020.34 1020.32 1020.29 1020.24
1016.44 1016.29 1016.26 1016.56 1016.23 1015.80 1015.73 1015.73 1015.87 1015.76 1015.74 1014.87 1015.31 1014.70 1015.55 1015.83 1015.40 1015.88 1016.89 1016.96 1018.03 1018.68 1018.89 1019.16 1019.34 1019.56 1019.79 1019.92 1020.09 1020.28 1020.41 1020.50 1020.55 1020.60 1020.61 1020.68 1020.73 1020.79
1015.79 1015.86 1015.82 1015.53 1015.95 1015.83 1015.53 1015.36 1015.11 1015.26 1015.32 1015.13 1015.20 1015.06 1014.99 1015.20 1015.81 1016.24 1015.99 1016.44 1017.24 1018.66 1019.04 1019.30 1019.56 1019.71 1019.93 1020.12 1020.33 1020.50 1020.63 1020.75 1020.88 1020.95 1020.98 1021.04 1021.13 1021.17
1015.06 1014.96 1014.95 1014.92 1015.04 1014.93 1014.78 1014.44 1014.43 1014.70 1014.78 1014.88 1014.49 1014.44 1014.81 1015.31 1016.07 1016.69 1016.82 1017.09 1017.85 1018.62 1019.09 1019.47 1019.69 1019.85 1020.00 1020.26 1020.59 1020.78 1020.92 1021.08 1021.22 1021.36 1021.44 1021.46 1021.60 1021.70
1014.43 1014.36 1014.30 1014.26 1014.21 1014.34 1014.49 1014.41 1014.38 1014.23 1014.05 1014.37 1014.01 1013.71 1013.97 1014.68 1015.48 1016.36 1017.16 1017.45 1017.89 1017.93 1018.53 1018.72 1019.72 1020.01 1020.27 1020.50 1020.70 1020.95 1021.16 1021.27 1021.48 1021.68 1021.85 1021.98 1022.10 1022.23
1013.98 1013.86 1013.80 1013.75 1013.71 1013.74 1013.79 1013.91 1013.53 1013.76 1013.39 1013.08 1012.95 1012.86 1012.89 1014.16 1014.81 1015.62 1016.18 1017.06 1017.60 1017.67 1018.24 1019.00 1019.33 1019.39 1020.12 1020.64 1020.67 1021.02 1021.35 1021.51 1021.77 1022.10 1022.32 1022.47 1022.64 1022.82
1013.24 1013.15 1013.08 1013.17 1013.17 1013.28 1013.44 1013.48 1013.47 1013.29 1013.12 1012.49 1011.98 1011.92 1012.36 1012.92 1013.77 1014.54 1015.62 1016.53 1017.28 1017.71 1017.95 1017.93 1018.28 1018.21 1018.78 1019.28 1020.10 1021.09 1021.52 1021.78 1021.98 1022.30 1022.73 1022.99 1023.20 1023.39
1013.08 1012.75 1012.43 1012.11 1012.19 1012.13 1012.16 1012.44 1012.62 1012.75 1012.75 1012.63 1012.17 1011.76 1011.71 1012.05 1012.65 1013.83 1014.56 1015.06 1015.33 1016.23 1017.14 1017.79 1018.13 1018.43 1018.98 1020.05 1020.67 1021.26 1021.70 1022.07 1022.37 1022.64 1023.12 1023.42 1023.55 1023.67
1013.13 1012.92 1012.69 1012.28 1011.89 1011.53 1011.25 1010.97 1010.79 1010.90 1011.38 1011.75 1011.77 1011.42 1011.37 1011.76 1012.29 1012.78 1013.59 1014.16 1014.91 1015.60 1016.31 1017.16 1018.16 1019.12 1019.85 1020.49 1021.05 1021.28 1021.77 1022.07 1022.68 1022.68 1022.96 1023.53 1023.82 1023.89
1012.60 1012.26 1011.88 1011.34 1011.20 1011.41 1011.32 1010.77 1010.07 1009.89 1010.06 1010.14 1010.49 1011.35 1011.41 1011.71 1011.91 1012.40 1012.91 1013.87 1014.95 1015.62 1016.21 1016.82 1018.26 1019.49 1020.53 1021.25 1021.58 1022.08 1021.68 1022.43 1022.91 1022.98 1023.00 1023.64 1023.83 1023.95
1011.90 1011.67 1011.60 1011.44 1011.11 1011.07 1011.05 1010.32 1009.95 1009.52 1009.72 1009.87 1010.42 1010.91 1011.02 1011.05 1011.56 1011.79 1011.96 1012.98 1013.82 1014.79 1015.14 1016.27 1017.92 1018.76 1020.54 1021.48 1021.85 1022.18 1022.29 1022.73 1023.24 1023.26 1023.34 1023.15 1023.60 1023.72
1011.74 1010.98 1010.57 1010.45 1010.56 1010.62 1010.58 1010.15 1008.96 1009.01 1009.08 1009.39 1009.64 1010.13 1010.57 1011.22 1011.52 1011.44 1011.51 1012.30 1013.35 1012.86 1013.48 1015.04 1016.79 1017.97 1018.93 1020.31 1020.85 1021.68 1022.20 1023.01 1023.30 1023.21 1023.34 1023.30 1023.39 1023.72
1011.89 1011.12 1010.68 1010.41 1010.31 1010.31 1010.24 1009.85 1009.75 1009.50 1008.91 1009.13 1009.43 1010.19 1010.90 1011.36 1011.84 1011.88 1012.12 1012.40 1012.87 1012.28 1012.80 1013.73 1015.57 1016.04 1017.29 1018.85 1020.16 1021.11 1022.08 1022.46 1022.85 1022.68 1022.52 1022.55 1023.11 1023.35
1011.56 1010.82 1010.47 1010.20 1010.19 1010.10 1009.67 1009.55 1009.57 1009.28 1008.77 1008.89 1009.53 1010.27 1010.73 1011.62 1012.15 1012.70 1013.21 1013.67 1013.46 1013.43 1013.67 1014.01 1015.14 1016.33 1016.92 1017.50 1018.61 1020.23 1021.56 1022.24 1022.52 1022.48 1021.69 1021.69 1021.84 1022.07
1010.80 1010.30 1009.79 1009.63 1009.50 1009.20 1009.11 1008.64 1008.51 1008.69 1008.48 1008.73 1009.62 1010.72 1011.53 1012.12 1012.59 1013.02 1013.40 1013.90 1014.62 1014.98 1014.56 1014.82 1015.49 1016.03 1017.05 1017.47 1018.59 1019.73 1020.82 1021.03 1021.53 1021.27 1021.17 1021.32 1021.30 1021.43
1010.60 1009.79 1009.27 1008.89 1008.80 1008.60 1008.51 1008.32 1007.88 1008.15 1008.32 1009.12 1010.12 1011.02 1011.74 1012.35 1012.94 1013.47 1013.99 1014.44 1014.97 1015.40 1015.54 1016.01 1016.28 1016.42 1017.33 1018.10 1019.03 1019.87 1020.61 1020.51 1020.79 1020.67 1020.93 1020.88 1021.13 1021.37
1010.38 1009.59 1008.86 1008.39 1008.23 1008.06 1007.92 1007.79 1008.10 1008.61 1009.22 1009.74 1010.59 1011.28 1012.09 1012.92 1013.52 1014.25 1014.59 1014.97 1015.36 1015.92 1016.28 1016.73 1016.92 1017.48 1018.34 1019.00 1018.92 1019.53 1019.85 1020.42 1020.29 1020.71 1020.64 1020.55 1020.57 1021.09
1010.63 1010.05 1009.45 1009.09 1008.69 1008.53 1008.47 1008.58 1009.09 1009.52 1010.04 1010.62 1011.24 1011.96 1012.63 1013.48 1014.03 1014.72 1015.13 1015.50 1016.17 1016.68 1017.19 1017.40 1017.58 1017.72 1018.22 1018.68 1019.42 1019.67 1019.12 1019.69 1020.04 1020.21 1020.22 1020.15 1019.96 1020.32
1011.00 1010.58 1010.31 1009.91 1009.60 1009.47 1009.53 1009.58 1010.05 1010.52 1010.97 1011.50 1012.00 1012.72 1013.36 1013.95 1014.60 1014.99 1015.44 1015.94 1016.56 1017.21 1017.63 1017.74 1017.52 1016.97 1016.53 1017.08 1017.80 1018.92 1019.69 1019.16 1019.26 1019.48 1019.81 1020.10 1020.25 1021.13
1011.51 1011.32 1011.12 1010.83 1010.57 1010.46 1010.36 1010.44 1010.87 1011.49 1011.98 1012.36 1012.72 1013.11 1013.72 1014.13 1014.71 1015.17 1015.49 1015.93 1016.29 1016.54 1016.63 1016.40 1016.49 1016.14 1016.21 1016.86 1017.74 1018.55 1019.51 1019.93 1019.62 1019.59 1019.75 1019.63 1019.63 1019.89
1011.49 1011.41 1011.62 1011.73 1011.39 1011.38 1011.39 1011.57 1011.97 1012.26 1012.64 1012.93 1013.37 1013.76 1014.15 1014.59 1014.91 1015.12 1015.32 1015.48 1015.38 1015.09 1015.30 1015.99 1016.56 1016.53 1016.40 1016.33 1016.80 1017.92 1018.69 1019.46 1020.22 1020.40 1020.52 1020.63 1020.42 1020.00
1011.24 1011.69 1011.62 1011.23 1011.28 1011.30 1011.74 1012.40 1012.63 1013.00 1013.17 1013.36 1013.72 1013.94 1014.01 1013.98 1013.90 1013.83 1014.09 1014.20 1014.56 1014.82 1015.63 1015.93 1016.18 1016.59 1016.70 1016.80 1017.10 1017.56 1018.34 1018.93 1019.16 1019.73 1020.11 1020.90 1021.15 1021.34
Wind_Speed
8 8 8 8 6 7 6 7 7 8 7 4 3 6 1 4 6 6 5 9 9 9 10 9 9 10 9 9 9 9 9 9 9 9 9 10 10 11
9 9 9 9 8 6 7 7 6 8 8 7 3 1 1 6 8 5 8 10 9 9 9 11 11 10 10 10 10 10 10 10 10 10 9 8 9 11
11 11 10 11 9 9 8 8 7 7 9 9 6 3 4 6 3 4 8 4 8 8 10 9 11 11 11 11 10 10 10 9 10 10 10 11 12 12
12 11 12 10 11 11 9 10 8 7 9 10 7 8 8 3 5 5 4 4 5 9 8 9 10 10 10 10 10 10 9 10 9 10 10 11 12 13
13 14 14 13 11 12 11 9 10 10 9 10 9 8 5 5 6 2 3 5 5 11 9 9 10 10 11 11 10 9 9 9 10 10 11 12 13 14
14 14 14 14 14 14 12 12 11 11 9 9 11 10 7 5 5 7 4 4 6 8 6 9 12 12 11 10 11 11 10 10 10 11 11 12 13 13
15 14 15 15 13 12 9 12 11 11 11 11 11 10 8 6 9 6 7 7 5 4 6 8 8 9 9 11 13 14 12 12 12 11 11 11 11 12
14 15 15 15 15 14 15 14 14 11 14 12 11 12 9 9 9 7 7 4 4 5 8 8 7 8 9 8 14 15 14 14 13 12 11 11 11 11
15 15 15 14 14 17 17 18 18 18 18 13 14 12 11 10 8 9 11 10 8 9 10 8 4 5 4 8 15 15 14 12 12 12 11 10 11 11
16 17 15 15 17 16 16 17 17 17 17 14 18 16 14 12 10 10 12 11 1 6 8 6 7 5 4 6 11 15 13 12 10 12 12 10 8 9
14 16 17 18 19 12 13 17 18 14 11 14 15 1 2 3 6 7 8 6 2 4 8 4 6 7 4 5 6 9 13 11 8 8 10 8 7 7
13 14 16 19 19 12 9 14 17 16 13 11 8 9 8 7 4 8 6 9 5 4 7 5 9 6 5 4 4 4 5 6 3 3 5 7 6 6
12 12 12 10 12 14 16 16 17 13 12 11 8 3 4 5 2 3 4 4 4 2 9 7 7 6 3 6 6 5 5 3 3 4 9 8 6 6
14 12 14 15 14 10 10 10 13 11 9 6 5 5 5 6 5 4 3 5 3 6 13 12 6 12 8 9 8 6 5 4 5 7 7 7 8 7
10 14 17 14 12 11 15 15 10 6 10 6 5 4 4 4 7 7 10 10 10 8 4 4 7 8 9 10 10 8 6 5 3 5 7 6 7 7
10 10 10 12 11 9 9 11 8 5 7 7 6 7 7 6 6 5 7 7 8 6 8 8 12 13 8 9 10 9 4 6 8 9 7 6 5 2
7 6 5 5 4 5 7 8 4 5 6 8 8 7 8 8 7 7 6 6 6 5 8 8 9 10 8 11 7 8 7 6 7 7 8 6 4 4
1 4 4 2 3 4 4 3 5 8 6 8 8 8 8 8 7 6 6 7 8 7 7 6 7 9 6 6 5 10 7 7 7 7 6 6 6 5
6 6 6 6 6 6 6 6 7 6 8 8 8 9 9 9 9 8 7 9 8 7 6 6 6 6 8 6 6 3 10 8 9 8 6 5 3 4
8 8 7 6 7 7 7 8 8 8 9 9 10 9 9 9 9 8 7 7 7 7 7 6 6 8 7 9 9 7 9 8 7 6 5 4 3 9
8 8 8 7 7 7 8 8 9 9 8 8 9 10 9 9 9 7 6 8 8 4 4 7 6 8 8 7 8 8 6 7 8 2 5 5 4 4
9 10 9 7 8 8 8 9 8 9 8 8 9 8 9 8 8 7 9 12 13 12 9 8 7 7 7 7 7 8 7 6 4 8 9 6 6 4
9 9 8 9 9 10 11 9 10 9 8 9 9 10 11 11 10 9 8 6 9 8 9 8 6 3 3 2 2 6 9 6 7 7 7 7 3 2
Wind_Direction
264 254 247 269 256 259 251 266 276 284 279 214 247 112 260 185 118 228 124 138 146 151 155 148 147 139 133 130 125 115 107 101 93 84 75 72 79 79
244 249 253 269 261 248 261 280 285 299 290 288 246 101 356 300 116 255 86 148 157 159 148 147 148 144 140 135 131 128 122 112 105 97 87 80 85 88
263 255 252 246 260 253 242 238 250 237 257 274 354 261 191 252 204 199 165 167 149 158 151 155 150 146 142 137 133 129 126 122 115 111 99 85 82 84
250 244 253 250 229 247 265 261 266 260 253 247 271 277 264 216 240 193 203 147 177 145 151 150 148 139 135 130 131 129 117 109 104 101 100 97 95 94
260 258 256 252 246 252 240 243 233 219 228 250 258 244 256 229 141 171 159 152 85 130 133 136 136 137 136 136 134 124 116 111 106 97 92 97 100 101
256 256 255 255 251 240 241 242 243 256 242 244 252 254 219 237 199 181 169 167 156 177 157 135 156 144 141 136 137 133 126 120 110 104 97 95 97 102
262 256 252 252 257 260 248 234 247 236 242 245 247 252 245 186 207 180 209 167 169 173 161 165 169 164 154 173 145 145 135 123 117 114 110 106 103 100
261 259 255 245 240 232 243 254 262 242 250 261 251 244 239 224 221 187 156 157 182 193 178 188 191 184 170 176 135 142 139 132 128 121 119 116 112 108
273 272 264 256 242 251 229 224 235 242 244 255 252 253 257 234 243 189 190 194 204 164 187 181 173 175 150 104 130 141 139 131 127 123 122 122 122 118
260 260 260 269 273 261 249 246 240 233 225 232 241 248 246 248 233 216 203 211 214 152 169 165 157 138 117 117 141 142 136 124 135 132 129 133 135 135
268 267 265 261 254 257 265 260 255 246 232 220 233 185 351 308 273 222 220 167 129 167 187 122 144 111 107 104 115 112 107 107 129 136 135 152 152 169
274 265 253 258 271 275 266 247 250 248 246 235 213 229 227 237 237 242 188 188 159 162 174 124 146 142 137 121 112 111 102 100 138 138 186 172 195 248
289 280 277 269 245 254 254 251 246 249 243 242 236 200 115 138 187 154 103 172 203 134 160 120 161 150 104 139 127 151 154 138 198 197 232 216 220 258
277 278 276 271 276 254 255 260 290 285 249 228 176 157 160 178 190 168 123 88 84 146 165 177 171 170 149 147 155 148 182 174 211 214 200 189 204 237
272 271 277 276 283 286 266 261 243 245 238 212 159 166 161 110 101 92 86 76 68 61 106 135 135 135 142 147 154 150 143 201 213 236 208 179 188 193
280 273 264 256 260 269 265 250 224 225 216 175 141 114 116 118 115 120 102 98 77 45 62 117 129 138 129 131 135 135 164 167 192 208 192 171 181 203
297 275 262 228 236 230 231 243 211 195 123 122 125 123 121 116 106 105 108 101 109 105 85 75 75 88 94 120 122 149 186 186 184 171 200 171 169 178
313 338 353 305 239 232 215 141 94 112 117 117 116 119 114 111 106 95 100 104 107 96 94 88 92 93 84 48 76 165 173 185 159 173 200 193 179 176
25 15 28 24 28 46 57 79 85 89 114 107 108 111 109 106 104 104 108 107 102 99 93 113 120 121 117 114 151 7 160 163 166 181 191 211 198 161
30 24 25 41 54 64 69 80 88 92 95 103 103 107 111 114 115 113 110 108 117 132 147 176 192 185 169 149 153 136 8 171 185 173 183 173 83 103
43 35 25 37 55 63 76 81 87 92 95 103 109 113 117 121 117 111 114 125 132 151 180 177 104 55 93 107 140 152 142 54 43 327 148 253 214 187
50 64 64 53 53 61 65 80 86 90 98 107 108 110 117 117 118 129 151 160 180 178 118 119 146 154 175 193 149 136 152 146 89 56 61 36 355 325
70 74 54 76 88 101 103 106 103 104 118 121 127 140 148 151 164 162 154 154 152 147 142 149 146 126 104 86 126 162 122 177 167 175 167 136 122 257